timestamp,wind_dir_avg,wind_spd_avg,wind_spd_max_dir,wind_spd_gust,battery_voltage,lat,long
2022-08-06 00:04:01+00:00,223.0,5.99,214.0,6.83,12.81,47.59359,-54.27349
2022-08-06 00:14:01+00:00,212.0,6.53,214.0,7.6,12.57,47.59359,-54.27349
2022-08-06 00:24:01+00:00,216.0,5.39,215.0,6.11,12.57,47.59359,-54.27349
2022-08-06 00:34:01+00:00,213.0,6.19,216.0,6.86,12.57,47.59359,-54.27349
2022-08-06 00:44:01+00:00,211.0,5.74,206.0,6.55,12.57,47.59359,-54.27349
2022-08-06 00:54:01+00:00,223.0,5.93,226.0,6.72,12.57,47.59359,-54.27349
2022-08-06 01:04:01+00:00,217.0,5.92,218.0,6.68,12.57,47.59359,-54.27349
2022-08-06 01:14:00+00:00,217.0,4.99,221.0,6.23,12.57,47.59359,-54.27349
2022-08-06 01:24:00+00:00,213.0,5.91,212.0,6.62,12.57,47.59359,-54.27349
2022-08-06 01:34:00+00:00,226.0,4.41,229.0,5.1,12.57,47.59359,-54.27349
2022-08-06 01:44:00+00:00,225.0,4.7,222.0,5.06,12.57,47.59359,-54.27349
2022-08-06 01:54:00+00:00,221.0,6.73,214.0,8.01,12.57,47.59359,-54.27349
2022-08-06 02:04:00+00:00,217.0,5.73,220.0,7.06,12.57,47.59359,-54.27349
2022-08-06 02:14:00+00:00,244.0,6.35,243.0,7.08,12.49,47.59359,-54.27349
2022-08-06 02:24:00+00:00,232.0,5.76,231.0,6.75,12.49,47.59359,-54.27349
2022-08-06 02:34:00+00:00,227.0,5.13,219.0,5.82,12.49,47.59359,-54.27349
2022-08-06 02:44:00+00:00,218.0,4.96,217.0,5.7,12.49,47.59359,-54.27349
2022-08-06 02:54:00+00:00,217.0,4.88,219.0,6.03,12.49,47.59359,-54.27349
2022-08-06 03:04:00+00:00,215.0,5.82,216.0,6.59,12.49,47.59359,-54.27349
2022-08-06 03:14:01+00:00,204.0,5.54,211.0,6.75,12.49,47.59359,-54.27349
2022-08-06 03:24:01+00:00,226.0,5.43,221.0,6.18,12.49,47.59359,-54.27349
2022-08-06 03:34:01+00:00,232.0,6.0,231.0,7.13,12.49,47.59359,-54.27349
2022-08-06 03:44:01+00:00,231.0,5.28,232.0,6.12,12.49,47.59359,-54.27349
2022-08-06 03:54:01+00:00,213.0,5.37,208.0,6.36,12.49,47.59359,-54.27349
2022-08-06 04:04:01+00:00,215.0,4.8,226.0,5.47,12.49,47.59359,-54.27349
2022-08-06 04:14:01+00:00,215.0,4.28,212.0,4.58,12.49,47.59359,-54.27349
2022-08-06 04:24:01+00:00,212.0,6.4,215.0,7.28,12.49,47.59359,-54.27349
2022-08-06 04:34:01+00:00,208.0,6.23,212.0,6.89,12.49,47.59359,-54.27349
2022-08-06 04:44:01+00:00,217.0,6.72,213.0,7.58,12.49,47.59359,-54.27349
2022-08-06 04:54:01+00:00,216.0,5.26,218.0,5.69,12.49,47.59359,-54.27349
2022-08-06 05:04:01+00:00,212.0,5.83,210.0,6.53,12.49,47.59359,-54.27349
2022-08-06 05:14:00+00:00,213.0,6.01,212.0,6.56,12.41,47.59359,-54.27349
2022-08-06 05:24:00+00:00,224.0,4.86,223.0,5.79,12.41,47.59359,-54.27349
2022-08-06 05:34:00+00:00,225.0,5.28,221.0,5.75,12.41,47.59359,-54.27349
2022-08-06 05:44:00+00:00,240.0,3.71,246.0,4.27,12.41,47.59359,-54.27349
2022-08-06 05:54:00+00:00,246.0,4.18,245.0,4.46,12.41,47.59359,-54.27349
2022-08-06 06:04:00+00:00,260.0,4.1,257.0,4.74,12.41,47.59359,-54.27349
2022-08-06 06:14:00+00:00,271.0,4.1,279.0,4.85,12.33,47.59359,-54.27349
2022-08-06 06:24:00+00:00,279.0,4.06,288.0,5.02,12.33,47.59359,-54.27349
2022-08-06 06:34:00+00:00,279.0,3.63,280.0,4.22,12.33,47.59359,-54.27349
2022-08-06 06:44:00+00:00,271.0,3.3,281.0,4.03,12.33,47.59359,-54.27349
2022-08-06 06:54:00+00:00,268.0,3.38,273.0,4.15,12.33,47.59359,-54.27349
2022-08-06 07:04:00+00:00,268.0,2.64,266.0,3.11,12.33,47.59359,-54.27349
2022-08-06 07:14:00+00:00,264.0,2.8,263.0,3.2,12.41,47.59359,-54.27349
2022-08-06 07:24:00+00:00,273.0,2.84,271.0,3.17,12.41,47.59359,-54.27349
2022-08-06 07:34:00+00:00,266.0,3.21,268.0,3.55,12.41,47.59359,-54.27349
2022-08-06 07:44:00+00:00,267.0,2.64,282.0,3.3,12.41,47.59359,-54.27349
2022-08-06 07:54:00+00:00,269.0,3.47,283.0,4.33,12.41,47.59359,-54.27349
2022-08-06 08:04:00+00:00,266.0,1.89,268.0,2.18,12.41,47.59359,-54.27349
2022-08-06 08:14:01+00:00,266.0,1.58,271.0,1.97,12.33,47.59359,-54.27349
2022-08-06 08:24:01+00:00,304.0,2.07,306.0,2.55,12.33,47.59359,-54.27349
2022-08-06 08:34:01+00:00,313.0,3.5,311.0,4.19,12.33,47.59359,-54.27349
2022-08-06 08:44:01+00:00,318.0,2.31,316.0,2.66,12.33,47.59359,-54.27349
2022-08-06 08:54:01+00:00,304.0,1.8,294.0,2.57,12.33,47.59359,-54.27349
2022-08-06 09:04:01+00:00,285.0,2.51,292.0,3.07,12.33,47.59359,-54.27349
2022-08-06 09:14:01+00:00,298.0,1.76,300.0,2.04,12.41,47.59359,-54.27349
2022-08-06 09:24:01+00:00,274.0,2.0,273.0,2.39,12.41,47.59359,-54.27349
2022-08-06 09:34:01+00:00,243.0,1.17,250.0,1.38,12.41,47.59359,-54.27349
2022-08-06 09:44:01+00:00,246.0,1.37,245.0,1.67,12.41,47.59359,-54.27349
2022-08-06 09:54:01+00:00,261.0,1.91,256.0,2.37,12.41,47.59359,-54.27349
2022-08-06 10:04:01+00:00,243.0,1.04,236.0,1.44,12.41,47.59359,-54.27349
2022-08-06 10:14:00+00:00,305.0,1.35,311.0,1.7,13.13,47.59359,-54.27349
2022-08-06 10:24:00+00:00,318.0,3.26,326.0,4.74,13.13,47.59359,-54.27349
2022-08-06 10:34:00+00:00,328.0,5.53,323.0,6.19,13.13,47.59359,-54.27349
2022-08-06 10:44:00+00:00,329.0,7.16,329.0,7.98,13.13,47.59359,-54.27349
2022-08-06 10:54:00+00:00,331.0,6.02,331.0,6.71,13.13,47.59359,-54.27349
2022-08-06 11:04:00+00:00,335.0,6.36,338.0,7.24,13.13,47.59359,-54.27349
2022-08-06 11:14:00+00:00,333.0,5.94,335.0,6.68,13.6,47.59359,-54.27349
2022-08-06 11:24:00+00:00,354.0,5.53,359.0,6.34,13.6,47.59359,-54.27349
2022-08-06 11:34:00+00:00,4.0,3.92,8.0,4.69,13.6,47.59359,-54.27349
2022-08-06 11:44:00+00:00,2.0,3.44,6.0,3.92,13.6,47.59359,-54.27349
2022-08-06 11:54:00+00:00,6.0,3.18,0.0,3.83,13.6,47.59359,-54.27349
2022-08-06 12:04:00+00:00,357.0,3.96,356.0,4.4,13.6,47.59359,-54.27349
2022-08-06 12:14:01+00:00,351.0,4.06,352.0,4.3,13.84,47.59359,-54.27349
2022-08-06 12:24:01+00:00,3.0,3.19,2.0,3.53,13.84,47.59359,-54.27349
2022-08-06 12:34:01+00:00,27.0,1.75,21.0,2.61,13.84,47.59359,-54.27349
2022-08-06 12:44:01+00:00,64.0,1.64,66.0,1.8,13.84,47.59359,-54.27349
2022-08-06 12:54:01+00:00,64.0,1.21,66.0,1.31,13.84,47.59359,-54.27349
2022-08-06 13:04:01+00:00,95.0,0.44,105.0,0.51,13.84,47.59359,-54.27349
2022-08-06 13:14:00+00:00,155.0,2.56,156.0,2.73,14.16,47.59359,-54.27349
2022-08-06 13:24:00+00:00,156.0,2.45,157.0,2.53,14.16,47.59359,-54.27349
2022-08-06 13:34:00+00:00,157.0,2.55,158.0,2.6,14.16,47.59359,-54.27349
2022-08-06 13:44:00+00:00,164.0,2.55,163.0,2.61,14.16,47.59359,-54.27349
2022-08-06 13:54:00+00:00,190.0,2.03,180.0,2.3,14.16,47.59359,-54.27349
2022-08-06 14:04:00+00:00,194.0,2.95,193.0,3.17,14.16,47.59359,-54.27349
2022-08-06 14:14:00+00:00,196.0,2.94,196.0,3.18,14.24,47.59359,-54.27349
2022-08-06 14:24:00+00:00,222.0,3.2,223.0,3.62,14.24,47.59359,-54.27349
2022-08-06 14:34:00+00:00,208.0,2.76,209.0,2.92,14.24,47.59359,-54.27349
2022-08-06 14:44:00+00:00,206.0,2.92,208.0,3.0,14.24,47.59359,-54.27349
2022-08-06 14:54:00+00:00,202.0,2.71,202.0,2.87,14.24,47.59359,-54.27349
2022-08-06 15:04:00+00:00,212.0,4.04,212.0,4.38,14.24,47.59359,-54.27349
2022-08-06 15:14:00+00:00,216.0,4.06,218.0,4.43,13.92,47.59359,-54.27349
2022-08-06 15:24:00+00:00,221.0,4.26,229.0,5.09,13.92,47.59359,-54.27349
2022-08-06 15:34:00+00:00,219.0,4.43,227.0,5.14,13.92,47.59359,-54.27349
2022-08-06 15:44:00+00:00,214.0,5.32,214.0,6.26,13.92,47.59359,-54.27349
2022-08-06 15:54:00+00:00,214.0,5.38,213.0,6.02,13.92,47.59359,-54.27349
2022-08-06 16:04:00+00:00,212.0,6.22,211.0,6.74,13.92,47.59359,-54.27349
2022-08-06 16:14:00+00:00,217.0,5.45,216.0,6.09,14.08,47.59359,-54.27349
2022-08-06 16:24:00+00:00,214.0,6.13,213.0,6.51,14.08,47.59359,-54.27349
2022-08-06 16:34:00+00:00,215.0,5.57,214.0,6.49,14.08,47.59359,-54.27349
2022-08-06 16:44:00+00:00,218.0,6.3,215.0,6.75,14.08,47.59359,-54.27349
2022-08-06 16:54:00+00:00,212.0,6.71,209.0,7.57,14.08,47.59359,-54.27349
2022-08-06 17:04:00+00:00,214.0,7.0,213.0,7.54,14.08,47.59359,-54.27349
2022-08-06 17:14:00+00:00,211.0,6.97,208.0,7.58,13.84,47.59359,-54.27349
2022-08-06 17:24:00+00:00,217.0,6.64,216.0,7.29,13.84,47.59359,-54.27349
2022-08-06 17:34:00+00:00,219.0,6.79,217.0,7.38,13.84,47.59359,-54.27349
2022-08-06 17:44:00+00:00,218.0,7.58,216.0,8.44,13.84,47.59359,-54.27349
2022-08-06 17:54:00+00:00,217.0,7.57,210.0,10.32,13.84,47.59359,-54.27349
2022-08-06 18:04:00+00:00,218.0,7.14,218.0,8.13,13.84,47.59359,-54.27349
2022-08-06 18:14:01+00:00,215.0,7.04,222.0,8.32,13.92,47.59359,-54.27349
2022-08-06 18:24:01+00:00,217.0,7.79,221.0,8.48,13.92,47.59359,-54.27349
2022-08-06 18:34:01+00:00,219.0,7.99,217.0,9.2,13.92,47.59359,-54.27349
2022-08-06 18:44:01+00:00,215.0,7.41,214.0,8.3,13.92,47.59359,-54.27349
2022-08-06 18:54:01+00:00,213.0,7.62,210.0,8.62,13.92,47.59359,-54.27349
2022-08-06 19:04:01+00:00,212.0,7.56,213.0,8.5,13.92,47.59359,-54.27349
2022-08-06 19:14:01+00:00,216.0,7.21,214.0,7.85,13.84,47.59359,-54.27349
2022-08-06 19:24:01+00:00,213.0,8.12,215.0,9.38,13.84,47.59359,-54.27349
2022-08-06 19:34:01+00:00,211.0,7.9,210.0,8.79,13.84,47.59359,-54.27349
2022-08-06 19:44:01+00:00,211.0,7.65,210.0,8.59,13.84,47.59359,-54.27349
2022-08-06 19:54:01+00:00,208.0,7.12,208.0,7.8,13.84,47.59359,-54.27349
2022-08-06 20:04:01+00:00,206.0,7.32,215.0,8.51,13.84,47.59359,-54.27349
2022-08-06 20:14:00+00:00,208.0,7.33,208.0,7.95,13.6,47.59359,-54.27349
2022-08-06 20:24:00+00:00,204.0,7.41,204.0,8.11,13.6,47.59359,-54.27349
2022-08-06 20:34:00+00:00,205.0,7.87,208.0,8.89,13.6,47.59359,-54.27349
2022-08-06 20:44:00+00:00,202.0,7.85,205.0,8.75,13.6,47.59359,-54.27349
2022-08-06 20:54:00+00:00,202.0,7.91,209.0,9.09,13.6,47.59359,-54.27349
2022-08-06 21:04:00+00:00,202.0,7.57,201.0,8.27,13.6,47.59359,-54.27349
2022-08-06 21:14:00+00:00,203.0,7.39,202.0,8.03,13.37,47.59359,-54.27349
2022-08-06 21:24:00+00:00,202.0,7.6,203.0,8.36,13.37,47.59359,-54.27349
2022-08-06 21:34:00+00:00,198.0,7.32,205.0,8.08,13.37,47.59359,-54.27349
2022-08-06 21:44:00+00:00,206.0,7.14,211.0,7.94,13.37,47.59359,-54.27349
2022-08-06 21:54:00+00:00,200.0,6.41,211.0,7.19,13.37,47.59359,-54.27349
2022-08-06 22:04:00+00:00,194.0,5.58,204.0,6.11,13.37,47.59359,-54.27349
2022-08-06 22:14:00+00:00,205.0,6.23,220.0,7.53,13.13,47.59359,-54.27349
2022-08-06 22:24:00+00:00,206.0,7.37,211.0,8.25,13.13,47.59359,-54.27349
2022-08-06 22:34:00+00:00,209.0,6.9,210.0,7.63,13.13,47.59359,-54.27349
2022-08-06 22:44:00+00:00,212.0,6.14,218.0,6.78,13.13,47.59359,-54.27349
2022-08-06 22:54:00+00:00,211.0,5.51,222.0,6.81,13.13,47.59359,-54.27349
2022-08-06 23:04:00+00:00,208.0,5.23,211.0,5.96,13.13,47.59359,-54.27349
2022-08-06 23:14:00+00:00,207.0,5.14,216.0,6.06,12.65,47.59359,-54.27349
2022-08-06 23:24:00+00:00,209.0,5.5,216.0,6.25,12.65,47.59359,-54.27349
2022-08-06 23:34:00+00:00,211.0,5.41,214.0,6.12,12.65,47.59359,-54.27349
2022-08-06 23:44:00+00:00,212.0,4.67,226.0,5.2,12.65,47.59359,-54.27349
2022-08-06 23:54:00+00:00,212.0,5.63,224.0,6.62,12.65,47.59359,-54.27349
